�������l�o���
Date,Time,MP-1(��Sv/h),MP-2(��Sv/h),MP-3(��Sv/h),MP-4(��Sv/h),MP-5(��Sv/h),MP-6(��Sv/h),MP-7(��Sv/h),MP-8(��Sv/h),����,����(m/s),���J
2016/12/06,00:00,1.117,1.843,1.222,2.081,1.434,0.578,1.044,0.968,���쐼,6.1,��
2016/12/06,00:10,1.120,1.843,1.220,2.085,1.434,0.578,1.044,0.966,��,6.4,��
2016/12/06,00:20,1.118,1.842,1.223,2.084,1.435,0.578,1.044,0.969,��,7.6,��
2016/12/06,00:30,1.118,1.839,1.222,2.086,1.435,0.576,1.045,0.966,��,6.6,��
2016/12/06,00:40,1.117,1.840,1.221,2.086,1.433,0.576,1.043,0.968,��,5.3,��
2016/12/06,00:50,1.120,1.842,1.221,2.084,1.431,0.578,1.044,0.969,��,6.0,��
2016/12/06,01:00,1.119,1.842,1.223,2.084,1.431,0.575,1.045,0.967,��,5.9,��
2016/12/06,01:10,1.117,1.844,1.220,2.082,1.433,0.579,1.045,0.967,��,4.7,��
2016/12/06,01:20,1.116,1.846,1.221,2.087,1.434,0.577,1.043,0.968,��,5.3,��
2016/12/06,01:30,1.119,1.843,1.221,2.083,1.436,0.576,1.046,0.969,��,5.9,��
2016/12/06,01:40,1.116,1.842,1.222,2.086,1.433,0.576,1.045,0.964,��,7.6,��
2016/12/06,01:50,1.118,1.843,1.224,2.085,1.433,0.578,1.043,0.969,���쐼,6.8,��
2016/12/06,02:00,1.115,1.845,1.223,2.084,1.436,0.577,1.046,0.967,��,6.2,��
2016/12/06,02:10,1.118,1.844,1.222,2.086,1.434,0.577,1.047,0.966,���쐼,3.9,��
2016/12/06,02:20,1.117,1.841,1.221,2.084,1.436,0.578,1.047,0.969,��쐼,2.9,��
2016/12/06,02:30,1.116,1.841,1.223,2.083,1.433,0.577,1.046,0.967,��쐼,4.0,��
2016/12/06,02:40,1.118,1.842,1.222,2.088,1.435,0.579,1.046,0.967,��쐼,2.6,��
2016/12/06,02:50,1.118,1.843,1.221,2.085,1.434,0.578,1.046,0.968,��,4.1,��
2016/12/06,03:00,1.120,1.843,1.222,2.082,1.436,0.577,1.047,0.967,��,5.1,��
2016/12/06,03:10,1.120,1.843,1.220,2.085,1.434,0.577,1.047,0.968,��,4.7,��
2016/12/06,03:20,1.120,1.842,1.220,2.082,1.437,0.577,1.045,0.967,��쐼,5.4,��
2016/12/06,03:30,1.119,1.846,1.221,2.084,1.434,0.577,1.045,0.966,��쐼,5.3,��
2016/12/06,03:40,1.120,1.842,1.222,2.085,1.434,0.576,1.046,0.967,��쐼,5.7,��
2016/12/06,03:50,1.120,1.844,1.222,2.086,1.436,0.579,1.044,0.968,��쐼,6.0,��
2016/12/06,04:00,1.120,1.840,1.221,2.084,1.435,0.578,1.048,0.967,��쐼,6.8,��
2016/12/06,04:10,1.119,1.842,1.222,2.085,1.435,0.579,1.045,0.968,��쐼,6.3,��
2016/12/06,04:20,1.119,1.843,1.219,2.084,1.436,0.577,1.047,0.967,�쐼,5.9,��
2016/12/06,04:30,1.122,1.843,1.220,2.085,1.436,0.578,1.046,0.968,��쐼,6.3,��
2016/12/06,04:40,1.119,1.844,1.224,2.087,1.433,0.580,1.047,0.969,��쐼,5.5,��
2016/12/06,04:50,1.120,1.843,1.222,2.085,1.435,0.578,1.047,0.968,��쐼,5.5,��
2016/12/06,05:00,1.120,1.845,1.222,2.086,1.435,0.578,1.048,0.968,��,6.0,��
2016/12/06,05:10,1.119,1.842,1.222,2.084,1.435,0.578,1.046,0.969,��,5.5,��
2016/12/06,05:20,1.121,1.843,1.220,2.084,1.435,0.578,1.047,0.968,��,7.0,��
2016/12/06,05:30,1.119,1.845,1.220,2.084,1.437,0.578,1.046,0.969,��,6.1,��
2016/12/06,05:40,1.122,1.841,1.222,2.084,1.437,0.578,1.047,0.969,��쐼,5.7,��
2016/12/06,05:50,1.120,1.843,1.223,2.087,1.439,0.579,1.046,0.969,��쐼,5.1,��
2016/12/06,06:00,1.121,1.844,1.221,2.086,1.437,0.577,1.048,0.968,�쐼,4.1,��
2016/12/06,06:10,1.120,1.841,1.220,2.085,1.437,0.578,1.048,0.970,��,3.9,��
2016/12/06,06:20,1.120,1.844,1.222,2.084,1.435,0.579,1.045,0.967,��,4.4,��
2016/12/06,06:30,1.120,1.841,1.220,2.087,1.434,0.577,1.048,0.967,��쐼,4.6,��
2016/12/06,06:40,1.119,1.843,1.221,2.084,1.434,0.578,1.047,0.968,�쐼,4.3,��
2016/12/06,06:50,1.118,1.844,1.218,2.088,1.434,0.579,1.047,0.969,�쐼,4.1,��
2016/12/06,07:00,1.117,1.843,1.220,2.082,1.434,0.579,1.047,0.968,���쐼,2.0,��
2016/12/06,07:10,1.117,1.840,1.220,2.083,1.435,0.578,1.048,0.966,�k�k��,3.6,��
2016/12/06,07:20,1.119,1.844,1.219,2.085,1.434,0.578,1.045,0.968,�k�k��,4.4,��
2016/12/06,07:30,1.119,1.841,1.220,2.084,1.435,0.578,1.046,0.969,�k��,5.0,��
2016/12/06,07:40,1.119,1.845,1.218,2.084,1.433,0.578,1.046,0.968,�k�k��,4.1,��
2016/12/06,07:50,1.119,1.841,1.220,2.087,1.430,0.577,1.046,0.968,���k��,5.2,��
2016/12/06,08:00,1.119,1.839,1.216,2.088,1.434,0.578,1.046,0.968,��,8.2,��
2016/12/06,08:10,1.116,1.843,1.221,2.087,1.436,0.578,1.047,0.968,��,10.7,��
2016/12/06,08:20,1.119,1.842,1.218,2.088,1.434,0.577,1.048,0.970,��,9.4,��
2016/12/06,08:30,1.117,1.841,1.219,2.088,1.435,0.578,1.046,0.969,���k��,10.9,��
2016/12/06,08:40,1.116,1.844,1.221,2.090,1.438,0.579,1.048,0.967,��,10.5,��
2016/12/06,08:50,1.116,1.844,1.218,2.086,1.434,0.580,1.046,0.968,���k��,9.7,��
2016/12/06,09:00,1.115,1.844,1.218,2.093,1.437,0.579,1.045,0.969,���k��,10.8,��
2016/12/06,09:10,1.117,1.845,1.220,2.091,1.432,0.579,1.047,0.970,���k��,11.9,��
2016/12/06,09:20,1.113,1.848,1.219,2.088,1.435,0.580,1.045,0.970,���k��,10.6,��
2016/12/06,09:30,1.115,1.849,1.222,2.088,1.433,0.580,1.044,0.969,���k��,9.1,��
2016/12/06,09:40,1.110,1.847,1.222,2.089,1.432,0.581,1.046,0.971,�k��,10.5,��
2016/12/06,09:50,1.109,1.845,1.217,2.089,1.434,0.578,1.046,0.970,�k��,10.5,��
2016/12/06,10:00,1.108,1.843,1.222,2.096,1.434,0.579,1.047,0.969,���k��,10.7,��
2016/12/06,10:10,1.109,1.846,1.223,2.093,1.432,0.580,1.043,0.970,���k��,10.5,�L
2016/12/06,10:20,1.105,1.841,1.224,2.089,1.430,0.579,1.044,0.970,���k��,8.8,��
2016/12/06,10:30,1.106,1.844,1.225,2.093,1.434,0.579,1.043,0.967,���k��,8.1,��
2016/12/06,10:40,1.104,1.844,1.224,2.091,1.435,0.579,1.044,0.970,���k��,11.1,��
2016/12/06,10:50,1.108,1.849,1.224,2.094,1.433,0.581,1.047,0.970,���k��,7.2,��
2016/12/06,11:00,1.108,1.847,1.222,2.098,1.437,0.582,1.046,0.970,���k��,6.8,��
2016/12/06,11:10,1.108,1.846,1.221,2.096,1.436,0.580,1.046,0.970,�k��,9.9,��
2016/12/06,11:20,1.109,1.845,1.222,2.096,1.438,0.581,1.044,0.970,�k��,8.1,��
2016/12/06,11:30,1.108,1.846,1.221,2.092,1.440,0.577,1.045,0.970,�k��,8.8,��
2016/12/06,11:40,1.108,1.844,1.222,2.096,1.438,0.580,1.044,0.968,�k��,9.1,��
2016/12/06,11:50,1.109,1.844,1.220,2.091,1.436,0.581,1.044,0.969,�k��,7.9,��
2016/12/06,12:00,1.110,1.846,1.219,2.094,1.423,0.578,1.046,0.969,�k��,6.8,��
2016/12/06,12:10,1.109,1.845,1.217,2.094,1.421,0.579,1.044,0.968,�k,6.3,��
2016/12/06,12:20,1.109,1.851,1.218,2.093,1.422,0.580,1.042,0.970,�k�k��,6.1,��
2016/12/06,12:30,1.110,1.847,1.220,2.093,1.426,0.579,1.046,0.969,�k�k��,4.7,��
2016/12/06,12:40,1.111,1.848,1.221,2.093,1.425,0.578,1.045,0.970,�k,3.4,��
2016/12/06,12:50,1.109,1.846,1.221,2.092,1.424,0.579,1.046,0.971,�k,5.0,��
2016/12/06,13:00,1.106,1.843,1.219,2.096,1.421,0.580,1.045,0.970,�k�k��,5.3,��
2016/12/06,13:10,1.107,1.847,1.222,2.095,1.421,0.578,1.045,0.969,�쓌,0.9,��
2016/12/06,13:20,1.111,1.843,1.221,2.093,1.429,0.578,1.046,0.970,�k��,6.5,��
2016/12/06,13:30,1.108,1.848,1.221,2.091,1.435,0.578,1.047,0.968,���k��,5.7,��
2016/12/06,13:40,1.107,1.847,1.222,2.096,1.436,0.578,1.046,0.966,�k,2.0,��
2016/12/06,13:50,1.102,1.846,1.227,2.099,1.439,0.578,1.046,0.966,���k��,3.8,��
2016/12/06,14:00,1.109,1.848,1.224,2.095,1.438,0.579,1.046,0.967,��,3.7,��
2016/12/06,14:10,1.108,1.847,1.225,2.095,1.436,0.578,1.045,0.967,�k�k��,5.6,��
2016/12/06,14:20,1.110,1.847,1.225,2.096,1.439,0.578,1.046,0.965,�k,7.3,��
2016/12/06,14:30,1.107,1.843,1.224,2.097,1.438,0.577,1.044,0.965,�k,7.9,��
2016/12/06,14:40,1.108,1.846,1.225,2.096,1.441,0.577,1.046,0.967,�k�k��,7.0,��
2016/12/06,14:50,1.108,1.845,1.224,2.096,1.441,0.576,1.046,0.966,�k�k��,5.8,��
2016/12/06,15:00,1.107,1.847,1.226,2.098,1.440,0.577,1.045,0.968,�k��,4.8,��
2016/12/06,15:10,1.106,1.850,1.223,2.094,1.440,0.579,1.046,0.968,�k��,11.7,��
2016/12/06,15:20,1.108,1.850,1.225,2.094,1.440,0.577,1.044,0.970,�k��,12.4,��
2016/12/06,15:30,1.107,1.852,1.226,2.095,1.437,0.577,1.045,0.967,�k��,11.0,��
2016/12/06,15:40,1.109,1.852,1.224,2.095,1.440,0.575,1.045,0.970,�k�k��,9.3,��
2016/12/06,15:50,1.105,1.850,1.225,2.095,1.439,0.575,1.042,0.967,�k��,10.5,��
2016/12/06,16:00,1.103,1.851,1.227,2.093,1.439,0.576,1.044,0.967,�k�k��,4.9,��
2016/12/06,16:10,1.104,1.853,1.222,2.096,1.439,0.575,1.042,0.969,�k�k��,7.7,��
2016/12/06,16:20,1.105,1.850,1.224,2.095,1.440,0.575,1.043,0.969,�k�k��,8.3,��
2016/12/06,16:30,1.104,1.852,1.223,2.094,1.439,0.576,1.044,0.968,�k�k��,10.2,��
2016/12/06,16:40,1.106,1.850,1.222,2.093,1.441,0.576,1.044,0.967,�k��,8.7,��
2016/12/06,16:50,1.103,1.849,1.221,2.093,1.440,0.576,1.046,0.967,�k��,11.7,��
2016/12/06,17:00,1.103,1.852,1.223,2.090,1.439,0.574,1.045,0.968,�k�k��,9.9,��
2016/12/06,17:10,1.101,1.851,1.222,2.093,1.443,0.572,1.045,0.967,�k�k��,7.7,��
2016/12/06,17:20,1.103,1.851,1.223,2.094,1.437,0.574,1.045,0.966,�k�k��,10.6,��
2016/12/06,17:30,1.103,1.850,1.222,2.094,1.443,0.574,1.044,0.968,�k��,9.4,��
2016/12/06,17:40,1.101,1.853,1.224,2.091,1.441,0.574,1.044,0.967,�k�k��,9.0,��
2016/12/06,17:50,1.100,1.854,1.223,2.090,1.440,0.574,1.044,0.967,�k�k��,8.0,��
2016/12/06,18:00,1.102,1.852,1.220,2.092,1.442,0.574,1.045,0.968,�k�k��,7.7,��
2016/12/06,18:10,1.101,1.851,1.223,2.097,1.439,0.574,1.042,0.966,�k�k��,8.7,��
2016/12/06,18:20,1.101,1.851,1.223,2.090,1.440,0.575,1.045,0.967,�k�k��,6.9,��
2016/12/06,18:30,1.101,1.852,1.222,2.091,1.438,0.574,1.043,0.967,�k�k��,7.3,��
2016/12/06,18:40,1.103,1.852,1.222,2.094,1.441,0.574,1.045,0.969,�k�k��,8.7,��
2016/12/06,18:50,1.101,1.851,1.222,2.094,1.439,0.574,1.044,0.966,�k�k��,8.1,��
2016/12/06,19:00,1.100,1.852,1.223,2.094,1.437,0.575,1.043,0.966,�k�k��,7.5,��
2016/12/06,19:10,1.098,1.853,1.222,2.091,1.437,0.574,1.044,0.967,�k�k��,8.1,��
2016/12/06,19:20,1.101,1.849,1.219,2.094,1.439,0.574,1.043,0.967,�k�k��,6.5,��
2016/12/06,19:30,1.101,1.850,1.224,2.094,1.440,0.575,1.045,0.965,�k�k��,7.2,��
2016/12/06,19:40,1.102,1.852,1.222,2.095,1.436,0.572,1.044,0.966,�k�k��,5.2,��
2016/12/06,19:50,1.102,1.849,1.222,2.093,1.439,0.574,1.043,0.966,�k�k��,4.4,��
2016/12/06,20:00,1.101,1.850,1.222,2.094,1.441,0.572,1.044,0.968,�k�k��,2.0,��
2016/12/06,20:10,1.100,1.849,1.221,2.093,1.437,0.574,1.043,0.965,�k,1.5,��
2016/12/06,20:20,1.098,1.848,1.220,2.091,1.441,0.574,1.043,0.966,�k,2.3,��
2016/12/06,20:30,1.100,1.852,1.220,2.091,1.439,0.574,1.043,0.966,�k��,2.2,��
2016/12/06,20:40,1.101,1.849,1.219,2.092,1.439,0.572,1.042,0.965,�k�k��,2.6,��
2016/12/06,20:50,1.100,1.852,1.218,2.092,1.438,0.571,1.041,0.967,�k�k��,5.3,��
2016/12/06,21:00,1.101,1.849,1.220,2.092,1.438,0.573,1.043,0.969,�k��,5.0,��
2016/12/06,21:10,1.100,1.850,1.220,2.091,1.437,0.573,1.043,0.966,�k��,3.6,��
2016/12/06,21:20,1.100,1.851,1.220,2.091,1.438,0.572,1.044,0.966,�k��,2.9,��
2016/12/06,21:30,1.101,1.848,1.219,2.090,1.439,0.572,1.043,0.964,�k�k��,3.0,��
2016/12/06,21:40,1.099,1.852,1.219,2.091,1.435,0.573,1.042,0.965,�k�k��,3.8,��
2016/12/06,21:50,1.100,1.847,1.220,2.089,1.435,0.573,1.043,0.967,�k�k��,4.5,��
2016/12/06,22:00,1.099,1.848,1.218,2.090,1.436,0.573,1.042,0.965,�k,4.5,��
2016/12/06,22:10,1.099,1.847,1.219,2.091,1.439,0.572,1.042,0.965,�k�k��,4.1,��
2016/12/06,22:20,1.100,1.848,1.219,2.091,1.440,0.573,1.043,0.964,�k�k��,6.4,��
2016/12/06,22:30,1.098,1.850,1.218,2.090,1.439,0.573,1.041,0.966,�k�k��,4.8,��
2016/12/06,22:40,1.097,1.849,1.220,2.089,1.437,0.571,1.040,0.964,�k�k��,4.8,��
2016/12/06,22:50,1.099,1.848,1.219,2.093,1.436,0.572,1.043,0.965,�k�k��,4.8,��
2016/12/06,23:00,1.098,1.850,1.219,2.091,1.437,0.572,1.042,0.966,�k�k��,4.3,��
2016/12/06,23:10,1.098,1.850,1.217,2.089,1.437,0.573,1.042,0.965,�k,4.2,��
2016/12/06,23:20,1.096,1.848,1.219,2.087,1.436,0.573,1.041,0.965,�k�k��,4.0,��
2016/12/06,23:30,1.097,1.845,1.218,2.087,1.437,0.573,1.043,0.964,�k�k��,3.2,��
2016/12/06,23:40,1.097,1.846,1.220,2.090,1.438,0.573,1.041,0.964,�k��,2.3,��
2016/12/06,23:50,1.099,1.845,1.218,2.091,1.436,0.573,1.042,0.964,�k�k��,2.6,��
